Radiation Dose at Monitoring Post of Fukushima Daini Nuclear Power Station
Date,Time,MP-1(microSv/h),MP-2(microSv/h),MP-3(microSv/h),MP-4(microSv/h),MP-5(microSv/h),MP-6(microSv/h),MP-7(microSv/h),Wind Direction,Wind Velocity(m/s),Rain
2022/07/09,00:00,0.150,0.139,0.218,0.208,0.210,0.117,0.077,north-northwest,8.2,Yes
2022/07/09,00:10,0.147,0.138,0.217,0.209,0.213,0.116,0.077,north-northwest,8.2,Yes
2022/07/09,00:20,0.148,0.139,0.218,0.209,0.210,0.117,0.075,north-northwest,8.4,Yes
2022/07/09,00:30,0.148,0.138,0.217,0.208,0.211,0.116,0.077,north-northwest,8.2,Yes
2022/07/09,00:40,0.147,0.137,0.216,0.209,0.210,0.116,0.075,north-northwest,8.5,Yes
2022/07/09,00:50,0.148,0.138,0.219,0.207,0.211,0.116,0.076,north-northwest,8.1,Yes
2022/07/09,01:00,0.147,0.138,0.215,0.209,0.211,0.115,0.076,north-northwest,7.4,Yes
2022/07/09,01:10,0.148,0.139,0.219,0.209,0.209,0.116,0.076,north-northwest,7.0,Yes
2022/07/09,01:20,0.147,0.138,0.216,0.208,0.212,0.117,0.075,north-northwest,6.7,Yes
2022/07/09,01:30,0.148,0.138,0.217,0.208,0.210,0.116,0.075,north-northwest,7.8,Yes
2022/07/09,01:40,0.148,0.137,0.216,0.208,0.211,0.116,0.076,north-northwest,7.9,Yes
2022/07/09,01:50,0.147,0.137,0.216,0.209,0.210,0.115,0.075,north-northwest,8.3,Yes
2022/07/09,02:00,0.149,0.137,0.216,0.207,0.211,0.116,0.076,north-northwest,8.3,Yes
2022/07/09,02:10,0.146,0.137,0.216,0.210,0.213,0.116,0.075,north-northwest,8.5,Yes
2022/07/09,02:20,0.148,0.137,0.217,0.207,0.209,0.115,0.076,north-northwest,8.4,Yes
2022/07/09,02:30,0.147,0.138,0.216,0.209,0.211,0.116,0.076,northwest,9.0,Yes
2022/07/09,02:40,0.149,0.137,0.218,0.208,0.210,0.115,0.075,north-northwest,7.9,Yes
2022/07/09,02:50,0.148,0.138,0.216,0.207,0.210,0.116,0.076,northwest,8.7,Yes
2022/07/09,03:00,0.147,0.139,0.218,0.209,0.212,0.116,0.076,north-northwest,8.1,Yes
2022/07/09,03:10,0.148,0.137,0.216,0.206,0.209,0.115,0.076,northwest,8.8,Yes
2022/07/09,03:20,0.145,0.138,0.218,0.209,0.212,0.116,0.076,northwest,9.5,Yes
2022/07/09,03:30,0.147,0.136,0.216,0.207,0.210,0.115,0.076,north-northwest,8.4,Yes
2022/07/09,03:40,0.146,0.139,0.217,0.209,0.212,0.116,0.076,north-northwest,9.2,Yes
2022/07/09,03:50,0.148,0.137,0.218,0.207,0.209,0.116,0.075,north-northwest,8.7,Yes
2022/07/09,04:00,0.146,0.139,0.216,0.209,0.211,0.114,0.076,north-northwest,8.4,Yes
2022/07/09,04:10,0.148,0.137,0.218,0.208,0.211,0.116,0.076,north-northwest,8.1,Yes
2022/07/09,04:20,0.148,0.138,0.216,0.208,0.209,0.116,0.076,north-northwest,8.3,Yes
2022/07/09,04:30,0.147,0.137,0.218,0.210,0.212,0.115,0.075,north-northwest,8.5,Yes
2022/07/09,04:40,0.148,0.138,0.217,0.207,0.210,0.116,0.077,north-northwest,8.1,Yes
2022/07/09,04:50,0.147,0.138,0.218,0.209,0.212,0.115,0.076,northwest,8.1,Yes
2022/07/09,05:00,0.148,0.137,0.217,0.208,0.211,0.116,0.075,northwest,6.9,Yes
2022/07/09,05:10,0.147,0.138,0.219,0.209,0.212,0.116,0.077,northwest,8.3,Yes
2022/07/09,05:20,0.148,0.138,0.217,0.208,0.212,0.116,0.076,northwest,8.9,Yes
2022/07/09,05:30,0.148,0.139,0.218,0.209,0.210,0.116,0.076,north-northwest,8.7,Yes
2022/07/09,05:40,0.147,0.137,0.217,0.210,0.213,0.115,0.076,northwest,8.5,No
2022/07/09,05:50,0.147,0.139,0.217,0.208,0.211,0.116,0.076,northwest,9.0,Yes
2022/07/09,06:00,0.147,0.137,0.217,0.210,0.212,0.115,0.076,north-northwest,9.8,No
2022/07/09,06:10,0.149,0.138,0.217,0.207,0.211,0.116,0.076,northwest,10.0,Yes
2022/07/09,06:20,0.147,0.138,0.218,0.209,0.209,0.116,0.075,north-northwest,9.8,No
2022/07/09,06:30,0.148,0.137,0.216,0.208,0.212,0.114,0.075,north-northwest,9.5,Yes
2022/07/09,06:40,0.147,0.137,0.220,0.208,0.208,0.116,0.075,northwest,8.7,Yes
2022/07/09,06:50,0.148,0.137,0.216,0.209,0.211,0.115,0.075,north-northwest,8.4,Yes
2022/07/09,07:00,0.148,0.138,0.217,0.207,0.211,0.115,0.075,northwest,8.3,Yes
2022/07/09,07:10,0.147,0.137,0.216,0.209,0.211,0.116,0.076,northwest,7.9,Yes
2022/07/09,07:20,0.148,0.136,0.215,0.208,0.211,0.115,0.075,northwest,8.3,Yes
2022/07/09,07:30,0.148,0.138,0.218,0.207,0.208,0.115,0.076,north-northwest,8.6,Yes
2022/07/09,07:40,0.148,0.137,0.216,0.209,0.212,0.115,0.076,northwest,9.5,Yes
2022/07/09,07:50,0.148,0.138,0.218,0.207,0.210,0.115,0.075,northwest,8.7,No
2022/07/09,08:00,0.146,0.138,0.217,0.208,0.210,0.114,0.076,north-northwest,7.5,Yes
2022/07/09,08:10,0.147,0.137,0.214,0.207,0.212,0.115,0.075,north-northwest,8.7,Yes
2022/07/09,08:20,0.147,0.139,0.218,0.207,0.210,0.115,0.076,north-northwest,7.9,Yes
2022/07/09,08:30,0.146,0.138,0.217,0.208,0.209,0.115,0.076,northwest,8.2,Yes
2022/07/09,08:40,0.147,0.137,0.215,0.209,0.212,0.116,0.075,north-northwest,8.4,No
2022/07/09,08:50,0.148,0.138,0.218,0.207,0.211,0.115,0.075,north-northwest,7.5,Yes
2022/07/09,09:00,0.147,0.137,0.218,0.208,0.209,0.115,0.075,northwest,7.3,No
2022/07/09,09:10,0.147,0.137,0.216,0.210,0.211,0.115,0.075,north-northwest,8.2,No
2022/07/09,09:20,0.148,0.138,0.215,0.209,0.212,0.115,0.075,northwest,7.5,No
2022/07/09,09:30,0.146,0.138,0.219,0.207,0.210,0.115,0.075,north-northwest,8.8,No
2022/07/09,09:40,0.148,0.138,0.218,0.206,0.210,0.115,0.075,north-northwest,8.6,No
2022/07/09,09:50,0.149,0.135,0.217,0.210,0.208,0.115,0.074,north-northwest,7.5,No
2022/07/09,10:00,0.148,0.137,0.216,0.210,0.209,0.114,0.074,north-northwest,8.9,No
2022/07/09,10:10,0.147,0.139,0.216,0.209,0.212,0.116,0.074,north-northwest,7.5,No
2022/07/09,10:20,0.149,0.138,0.215,0.207,0.212,0.116,0.075,north-northwest,7.1,No
2022/07/09,10:30,0.149,0.137,0.218,0.206,0.210,0.116,0.075,north-northwest,7.0,No
2022/07/09,10:40,0.147,0.137,0.219,0.208,0.210,0.115,0.075,north-northwest,8.1,No
2022/07/09,10:50,0.148,0.138,0.218,0.211,0.209,0.116,0.074,north-northwest,7.9,No
2022/07/09,11:00,0.150,0.138,0.216,0.209,0.210,0.116,0.075,north,7.7,No
2022/07/09,11:10,0.148,0.138,0.216,0.209,0.213,0.117,0.076,north-northwest,6.0,Yes
2022/07/09,11:20,0.147,0.137,0.217,0.208,0.213,0.117,0.075,north-northwest,5.8,Yes
2022/07/09,11:30,0.149,0.139,0.220,0.210,0.212,0.116,0.075,north-northwest,6.6,Yes
2022/07/09,11:40,0.150,0.139,0.219,0.212,0.210,0.116,0.075,north-northwest,6.7,Yes
2022/07/09,11:50,0.147,0.138,0.218,0.211,0.214,0.117,0.077,north-northwest,6.1,Yes
2022/07/09,12:00,0.148,0.140,0.218,0.209,0.214,0.117,0.076,north-northwest,6.7,Yes
2022/07/09,12:10,0.151,0.140,0.220,0.212,0.211,0.117,0.075,north-northwest,6.6,Yes
2022/07/09,12:20,0.148,0.138,0.219,0.211,0.210,0.116,0.076,north-northwest,6.2,Yes
2022/07/09,12:30,0.148,0.139,0.218,0.210,0.214,0.117,0.076,northwest,5.5,Yes
2022/07/09,12:40,0.150,0.138,0.219,0.208,0.211,0.117,0.076,north-northwest,6.0,Yes
2022/07/09,12:50,0.148,0.138,0.218,0.210,0.208,0.116,0.075,north,6.6,Yes
2022/07/09,13:00,0.148,0.137,0.215,0.208,0.211,0.116,0.076,north-northwest,4.7,Yes
2022/07/09,13:10,0.148,0.137,0.216,0.204,0.211,0.116,0.076,west-northwest,3.9,Yes
2022/07/09,13:20,0.146,0.137,0.214,0.207,0.208,0.115,0.075,north-northeast,9.0,Yes
2022/07/09,13:30,0.147,0.138,0.214,0.206,0.209,0.115,0.077,north-northwest,5.8,Yes
2022/07/09,13:40,0.147,0.138,0.217,0.205,0.211,0.115,0.077,north-northwest,6.2,Yes
2022/07/09,13:50,0.146,0.137,0.214,0.208,0.209,0.114,0.076,north-northwest,6.1,Yes
2022/07/09,14:00,0.146,0.138,0.215,0.208,0.210,0.114,0.076,north-northwest,4.8,Yes
2022/07/09,14:10,0.147,0.137,0.217,0.206,0.213,0.115,0.076,north-northwest,5.2,Yes
2022/07/09,14:20,0.146,0.137,0.216,0.208,0.209,0.115,0.076,north-northwest,5.5,Yes
2022/07/09,14:30,0.146,0.137,0.214,0.209,0.209,0.114,0.075,north-northwest,5.2,Yes
2022/07/09,14:40,0.147,0.138,0.216,0.206,0.213,0.114,0.076,north-northwest,6.1,No
2022/07/09,14:50,0.146,0.136,0.217,0.208,0.210,0.115,0.075,north,5.0,No
2022/07/09,15:00,0.145,0.138,0.214,0.209,0.209,0.115,0.075,north-northwest,5.3,Yes
2022/07/09,15:10,0.148,0.137,0.215,0.206,0.210,0.114,0.075,north-northwest,5.6,Yes
2022/07/09,15:20,0.147,0.136,0.217,0.205,0.212,0.115,0.076,north-northwest,6.8,No
2022/07/09,15:30,0.145,0.136,0.215,0.207,0.212,0.115,0.074,north-northwest,5.4,Yes
2022/07/09,15:40,0.146,0.137,0.214,0.209,0.209,0.114,0.075,north-northwest,7.0,Yes
2022/07/09,15:50,0.147,0.136,0.216,0.206,0.209,0.114,0.075,north,5.6,Yes
2022/07/09,16:00,0.145,0.136,0.217,0.209,0.211,0.114,0.075,north,4.8,Yes
2022/07/09,16:10,0.145,0.137,0.214,0.209,0.210,0.115,0.074,north-northwest,5.3,Yes
2022/07/09,16:20,0.147,0.137,0.216,0.208,0.210,0.115,0.075,north,3.8,Yes
2022/07/09,16:30,0.146,0.136,0.219,0.206,0.210,0.114,0.075,north,6.0,Yes
2022/07/09,16:40,0.145,0.137,0.215,0.209,0.212,0.114,0.074,north,6.0,Yes
2022/07/09,16:50,0.148,0.138,0.214,0.207,0.209,0.115,0.075,north,5.6,No
2022/07/09,17:00,0.147,0.136,0.217,0.207,0.208,0.114,0.075,north,6.4,No
2022/07/09,17:10,0.146,0.138,0.216,0.209,0.212,0.114,0.075,north,4.7,No
2022/07/09,17:20,0.147,0.137,0.215,0.208,0.211,0.115,0.074,north,5.6,No
2022/07/09,17:30,0.146,0.137,0.217,0.206,0.208,0.115,0.074,north,5.3,No
2022/07/09,17:40,0.146,0.139,0.217,0.208,0.210,0.113,0.075,north,5.0,No
2022/07/09,17:50,0.147,0.138,0.216,0.209,0.212,0.114,0.074,north,4.2,Yes
2022/07/09,18:00,0.146,0.137,0.218,0.207,0.210,0.115,0.074,north,4.5,Yes
2022/07/09,18:10,0.146,0.138,0.215,0.209,0.210,0.114,0.075,north,3.3,Yes
2022/07/09,18:20,0.147,0.136,0.216,0.209,0.211,0.115,0.074,north-northwest,3.5,Yes
2022/07/09,18:30,0.146,0.136,0.217,0.206,0.209,0.116,0.075,north-northwest,3.4,Yes
2022/07/09,18:40,0.146,0.137,0.216,0.208,0.210,0.114,0.074,north-northwest,3.9,No
2022/07/09,18:50,0.147,0.137,0.218,0.208,0.211,0.115,0.074,northwest,4.1,No
2022/07/09,19:00,0.146,0.137,0.217,0.206,0.209,0.115,0.075,northwest,4.5,No
2022/07/09,19:10,0.147,0.137,0.215,0.209,0.210,0.115,0.075,northwest,3.5,No
2022/07/09,19:20,0.147,0.136,0.217,0.207,0.211,0.114,0.074,northwest,3.3,No
2022/07/09,19:30,0.146,0.138,0.218,0.207,0.210,0.115,0.074,northwest,3.3,No
2022/07/09,19:40,0.148,0.136,0.216,0.209,0.210,0.116,0.074,northwest,2.2,No
2022/07/09,19:50,0.147,0.137,0.219,0.207,0.212,0.115,0.074,north-northwest,2.8,No
2022/07/09,20:00,0.145,0.137,0.216,0.208,0.209,0.115,0.075,north-northwest,3.3,No
2022/07/09,20:10,0.147,0.136,0.217,0.209,0.210,0.114,0.074,north,3.2,No
2022/07/09,20:20,0.147,0.138,0.216,0.205,0.210,0.115,0.075,north,2.6,Yes
2022/07/09,20:30,0.146,0.137,0.215,0.208,0.208,0.116,0.075,north,1.8,Yes
2022/07/09,20:40,0.147,0.136,0.216,0.207,0.210,0.114,0.074,north,1.5,No
2022/07/09,20:50,0.147,0.138,0.217,0.207,0.211,0.115,0.074,north,1.2,No
2022/07/09,21:00,0.146,0.136,0.216,0.210,0.209,0.116,0.075,north,1.6,No
2022/07/09,21:10,0.147,0.136,0.217,0.207,0.210,0.114,0.074,northwest,0.9,No
2022/07/09,21:20,0.147,0.138,0.218,0.207,0.210,0.115,0.075,west-northwest,1.3,No
2022/07/09,21:30,0.146,0.137,0.216,0.208,0.209,0.115,0.075,west,1.3,No
2022/07/09,21:40,0.148,0.137,0.218,0.208,0.210,0.116,0.074,west-southwest,1.7,No
2022/07/09,21:50,0.146,0.137,0.216,0.207,0.211,0.116,0.074,west-southwest,1.4,No
2022/07/09,22:00,0.147,0.137,0.216,0.211,0.209,0.115,0.075,south-southwest,2.0,No
2022/07/09,22:10,0.149,0.137,0.218,0.208,0.211,0.115,0.074,south,2.1,No
2022/07/09,22:20,0.147,0.137,0.216,0.208,0.211,0.116,0.075,south-southwest,2.3,No
2022/07/09,22:30,0.146,0.136,0.217,0.208,0.210,0.115,0.075,south,2.8,No
2022/07/09,22:40,0.148,0.137,0.217,0.208,0.212,0.115,0.075,south,2.6,No
2022/07/09,22:50,0.146,0.137,0.215,0.209,0.210,0.116,0.075,south,2.8,Yes
2022/07/09,23:00,0.147,0.137,0.218,0.210,0.211,0.116,0.075,south,2.7,Yes
2022/07/09,23:10,0.148,0.138,0.218,0.208,0.212,0.115,0.075,south,2.8,No
2022/07/09,23:20,0.146,0.137,0.217,0.210,0.211,0.116,0.075,south-southwest,2.8,No
2022/07/09,23:30,0.146,0.137,0.218,0.210,0.211,0.116,0.074,south-southwest,3.6,No
2022/07/09,23:40,0.149,0.137,0.216,0.208,0.213,0.115,0.075,south,3.4,No
2022/07/09,23:50,0.147,0.137,0.218,0.209,0.211,0.116,0.075,south,3.8,No
